Zurück zum Katalog

DELTA 1 DEB

AktivSSO
NORAD 1529·DEBRIS·🇺🇸 United States

Gestartet Jul 2, 1965 von Cape Canaveral Space Force Station

Loading…

Nächste Überflüge (nächste 24 Stunden)

TLE

AktuellSource: Space-Track

Epoche: Sep 14, 2026, 02:58 UTC

1 01529U 65051D   26257.12366103  .00000114  00000-0  69075-4 0  9995
2 01529  98.9677 138.6313 0035599 330.1800  29.7349 14.24301661168104

Verfolge DELTA 1 DEB in Echtzeit mit AllMySat

Download on the App Store